Location: Huberhof
(49.2050°N, 7.4980°E)
Time: 05:06:48
(UTC+00:00)

CZ-4C R/B - Pass Details

Date: 29 October 2020
Orbit: 624 x 1378 km, 63.4° (Epoch: 25 November)

Event Time Altitude Azimuth Distance (km) Brightness Sun altitude
Rises 18:39:19 0° 316° (NW) 3,674 6.3 -24.3°
Reaches altitude 10° 18:41:49 10° 322° (NW) 2,831 5.5 -24.7°
Maximum altitude 18:48:28 51° 37° (NE) 1,448 3.1 -25.8°
Enters shadow 18:49:38 47° 65° (ENE) 1,539 3.1 -26.0°
